Location: Innerarity Island Observatory
(30.3139°N, 87.4867°W)
Time: 15:19:17
(UTC-05:00)

Amateur Radio Satellites - All Passes

Search period start: 01 September 2015 14:49
Search period end: 02 September 2015 14:49
Location: Innerarity Island Observatory, 30.3139°N, 87.4867°W

Satellite Date Start Highest point End Downlink Frequencies (MHz)
Time Altitude Azimuth
BEESAT 01 Sep 14:55:24 15:00:07 64° 284° (WNW) 15:04:48 436.000
AO-7 01 Sep 15:09:15 15:16:45 40° 67° (ENE) 15:24:21 29.400- 29.500
GONETS M04 01 Sep 15:15:30 15:23:47 46° 270° (W) 15:31:59
SRMSAT 01 Sep 15:15:56 15:20:50 27° 174° (S) 15:25:46 437.500
Gurwin Techsat 1B 01 Sep 15:21:37 15:26:14 29° 264° (W) 15:30:46 435.225
SWISSCUBE 01 Sep 15:21:58 15:26:06 29° 288° (WNW) 15:30:09 437.505
BEESAT 3 01 Sep 15:22:49 15:26:12 24° 304° (NW) 15:29:32 437.485
STARS 01 Sep 15:34:47 15:38:28 26° 96° (E) 15:42:13 437.465
ITAMSAT 1 01 Sep 15:35:42 15:39:58 25° 264° (W) 15:44:07 435.822/435.867
BEESAT 2 01 Sep 15:36:00 15:39:23 24° 304° (NW) 15:42:43 435.950
Cosmos 2499 01 Sep 15:36:52 15:45:21 65° 81° (E) 15:53:11 435.465 / 435.565
JUGNU 01 Sep 15:53:30 15:58:22 26° 187° (S) 16:03:10 437.505
KKS-1 01 Sep 15:54:39 15:59:10 87° 106° (ESE) 16:03:38 437.445
HORYU 2 01 Sep 15:58:31 16:02:58 64° 76° (ENE) 16:07:25 437.375
ITUPSAT 1 01 Sep 16:02:40 16:04:49 13° 292° (WNW) 16:06:42 437.325
ISS 01 Sep 16:10:03 16:13:17 69° 44° (NE) 16:16:30 145.825
MOZHAYETS 4 01 Sep 16:13:45 16:16:28 16° 93° (E) 16:19:23
AIST 2 01 Sep 16:16:34 16:20:39 48° 300° (WNW) 16:24:47 435.215
JAS-2 01 Sep 16:30:55 16:36:57 24° 269° (W) 16:42:53 435.910
RS-15 01 Sep 16:42:17 16:53:04 65° 301° (WNW) 17:04:14 29.354- 29.394
AO-7 01 Sep 17:01:51 17:09:31 38° 261° (W) 17:17:02 29.400- 29.500
SRMSAT 01 Sep 17:04:31 17:09:33 29° 184° (S) 17:14:34 437.500
STARS 01 Sep 17:11:25 17:14:46 21° 289° (WNW) 17:17:59 437.465
Cubesat XI-IV 01 Sep 17:21:37 17:24:56 18° 69° (ENE) 17:28:28 437.490
Cosmos 2499 01 Sep 17:31:59 17:37:44 19° 276° (W) 17:42:48 435.465 / 435.565
JUGNU 01 Sep 17:43:23 17:46:52 16° 196° (SSW) 17:50:13 437.505
MOZHAYETS 4 01 Sep 17:49:40 17:53:48 34° 286° (WNW) 17:57:53
CUTE-I 01 Sep 18:04:23 18:09:27 48° 74° (ENE) 18:14:34 437.470
CUBESAT XI-V 01 Sep 18:08:54 18:12:40 25° 95° (E) 18:16:32 437.345
AIST 1 01 Sep 18:32:03 18:34:23 15° 74° (ENE) 18:36:56
BRITE-PL 01 Sep 18:34:32 18:34:49 10° 67° (ENE) 18:35:24 437.365/2234.400
O/OREOS (USA 219) 01 Sep 18:48:58 18:53:29 88° 288° (WNW) 18:58:04 437.305
SRMSAT 01 Sep 18:53:59 18:58:14 20° 193° (SSW) 19:02:26 437.500
GOMX 1 01 Sep 18:57:58 18:59:11 11° 67° (ENE) 19:00:44 467.674
Cubesat XI-IV 01 Sep 18:59:38 19:04:44 45° 261° (W) 19:09:48 437.490
RS-15 01 Sep 19:02:01 19:08:30 16° 328° (NNW) 19:14:30 29.354- 29.394
HO-68 01 Sep 19:19:43 19:24:25 20° 64° (ENE) 19:29:28 435.675
Cosmos 2491 01 Sep 19:29:38 19:36:59 31° 74° (ENE) 19:44:35 435.465 / 435.565
YUBILEINY 01 Sep 19:33:39 19:37:19 14° 83° (E) 19:41:44 435.215
CANX-2 01 Sep 19:45:00 19:47:38 17° 72° (ENE) 19:50:25 2200.000
CUBESAT XI-V 01 Sep 19:46:16 19:50:01 24° 288° (WNW) 19:53:39 437.345
CUTE-I 01 Sep 19:46:37 19:49:50 15° 267° (W) 19:52:46 437.470
PRISM 01 Sep 19:47:52 19:51:51 49° 100° (E) 19:55:52 437.425
STRAND 1 01 Sep 19:56:58 20:02:06 89° 283° (WNW) 20:07:13 437.568
SEEDS 01 Sep 20:04:23 20:07:22 19° 72° (ENE) 20:10:29 437.485
AIST 1 01 Sep 20:08:16 20:12:09 32° 268° (W) 20:16:01
BRITE-PL 01 Sep 20:08:41 20:12:50 52° 261° (W) 20:17:18 437.365/2234.400
COMPASS 1 01 Sep 20:24:11 20:27:38 26° 73° (ENE) 20:31:09 437.405
GOMX 1 01 Sep 20:32:31 20:36:49 52° 261° (W) 20:41:25 467.674
AAUSAT CUBESAT 2 01 Sep 20:33:27 20:36:57 27° 74° (ENE) 20:40:33 437.432
DOVE 4 01 Sep 20:41:02 20:45:32 75° 259° (W) 20:50:21 437.250
DELFI C3 01 Sep 20:53:11 20:54:07 11° 70° (ENE) 20:55:18 145.870
ZACube-1 01 Sep 21:00:41 21:03:24 16° 71° (ENE) 21:06:20 437.345
CUBEBUG 2 01 Sep 21:03:30 21:07:33 32° 73° (ENE) 21:11:45 437.445
HO-68 01 Sep 21:04:34 21:11:38 64° 258° (WSW) 21:18:45 435.675
CUTE 1.7 + AOD 2 01 Sep 21:04:53 21:09:05 53° 260° (W) 21:13:17 437.475
FUNcube-1 01 Sep 21:05:21 21:08:18 18° 71° (ENE) 21:11:27 145.935
UWE-3 01 Sep 21:08:36 21:12:26 28° 73° (ENE) 21:16:24 435.000/436.395/437.385
CINEMA 3 01 Sep 21:19:11 21:23:46 68° 259° (W) 21:28:36 145.822/145.860
CANX-2 01 Sep 21:19:30 21:23:20 30° 263° (W) 21:27:07 2200.000
YUBILEINY 01 Sep 21:24:28 21:33:14 86° 275° (W) 21:42:07 435.215
Cosmos 2491 01 Sep 21:25:49 21:34:03 46° 270° (W) 21:42:14 435.465 / 435.565
HUMSAT D 01 Sep 21:37:38 21:40:00 15° 71° (ENE) 21:42:34 437.325/437.525
SEEDS 01 Sep 21:39:27 21:43:01 25° 264° (W) 21:46:30 437.485
DX 1 01 Sep 21:47:37 21:48:08 10° 69° (ENE) 21:48:57 434.975-435.025
Oscar 11 01 Sep 21:49:43 21:54:04 78° 258° (WSW) 21:58:26 145.826/435.025
UKube-1 01 Sep 21:57:21 21:59:02 12° 69° (ENE) 22:00:59 .
COMPASS 1 01 Sep 22:00:15 22:03:17 18° 266° (W) 22:06:10 437.405
AAUSAT CUBESAT 2 01 Sep 22:09:44 22:12:34 17° 266° (W) 22:15:15 437.432
AISAT 01 Sep 22:12:21 22:14:24 14° 70° (ENE) 22:16:43 437.250
DELFI C3 01 Sep 22:24:59 22:28:50 41° 261° (W) 22:32:40 145.870
UNISAT 6 01 Sep 22:31:16 22:34:37 21° 94° (E) 22:38:00 437.425
ZACube-1 01 Sep 22:35:18 22:39:28 36° 263° (W) 22:43:40 437.345
VELOX 1 01 Sep 22:38:32 22:42:11 27° 73° (ENE) 22:45:56 145.980
FUNcube-1 01 Sep 22:40:19 22:44:23 32° 264° (W) 22:48:28 145.935
CUBEBUG 2 01 Sep 22:41:00 22:44:18 19° 267° (W) 22:47:29 437.445
UWE-3 01 Sep 22:45:25 22:48:56 21° 266° (W) 22:52:23 435.000/436.395/437.385
50 SAT 01 Sep 22:55:55 22:59:46 53° 76° (ENE) 23:03:39 437.505
TIGRISAT 01 Sep 22:58:38 23:02:56 43° 99° (E) 23:07:08 435.000
Cosmos 2504 01 Sep 23:06:30 23:14:15 59° 91° (E) 23:22:34 435.465 / 435.565
HUMSAT D 01 Sep 23:11:30 23:15:27 34° 263° (W) 23:19:24 437.325/437.525
ANTELSAT 01 Sep 23:16:02 23:20:33 76° 101° (ESE) 23:24:56 437.575/2403.000
AUBIESAT-1 01 Sep 23:16:43 23:20:10 36° 102° (ESE) 23:23:25 437.475
DX 1 01 Sep 23:19:47 23:23:59 51° 260° (W) 23:28:13 434.975-435.025
M-CUBED/EXP-1 PRIME 01 Sep 23:22:58 23:26:43 58° 104° (ESE) 23:30:10 437.505
POLYITAN 1 01 Sep 23:27:11 23:31:00 31° 97° (E) 23:34:51 437.675
YUBILEINY 01 Sep 23:27:40 23:31:35 13° 295° (WNW) 23:34:41 435.215
DUCHIFAT 1 01 Sep 23:28:48 23:32:34 30° 97° (E) 23:36:22 145.980
POPSAT HIP 1 01 Sep 23:29:18 23:33:09 32° 97° (E) 23:37:02 437.405
CUSAT 1 01 Sep 23:30:44 23:33:48 27° 88° (E) 23:37:44 437.405
UKube-1 01 Sep 23:30:45 23:34:50 42° 261° (W) 23:38:56 .
BUGSAT 1 01 Sep 23:32:03 23:35:07 20° 95° (E) 23:38:19 437.445
SPROUT 01 Sep 23:35:41 23:38:44 20° 72° (ENE) 23:41:57 437.525
ESTCUBE 1 01 Sep 23:37:03 23:41:32 79° 258° (WSW) 23:46:02 437.505/2401.250
RS-15 01 Sep 23:39:23 23:47:49 23° 40° (NE) 23:57:02 29.354- 29.394
CUBEBUG 1 01 Sep 23:43:20 23:47:39 82° 259° (W) 23:51:59 437.445
BEESAT 3 01 Sep 23:45:56 23:49:31 31° 58° (ENE) 23:53:04 437.485
QB50P2 01 Sep 23:46:16 23:50:30 57° 100° (E) 23:54:43 145.880/145.840
NANOSAT C BR1 01 Sep 23:46:24 23:50:35 54° 100° (E) 23:54:46 145.865
AISAT 01 Sep 23:46:31 23:50:40 40° 261° (W) 23:54:49 437.250
SO-50 01 Sep 23:58:14 00:02:20 31° 112° (ESE) 00:06:39 436.795
BEESAT 2 01 Sep 23:59:40 00:03:18 32° 58° (ENE) 00:06:56 435.950
QB50P1 02 Sep 00:00:28 00:04:47 85° 102° (ESE) 00:09:03 145.935-145.965
PCSat 02 Sep 00:06:01 00:07:38 12° 105° (ESE) 00:09:39 145.827
DANDE 02 Sep 00:07:04 00:10:04 40° 92° (E) 00:13:55 436.750
UNISAT 6 02 Sep 00:07:35 00:11:22 26° 288° (WNW) 00:14:58 437.425
VELOX 1 02 Sep 00:15:30 00:18:44 19° 265° (W) 00:21:51 145.980
TISAT 1 02 Sep 00:33:57 00:38:03 57° 76° (ENE) 00:42:12 437.305
TIGRISAT 02 Sep 00:37:08 00:39:18 13° 291° (WNW) 00:41:12 435.000
AIST 2 02 Sep 00:44:18 00:47:16 19° 54° (NE) 00:50:19 435.215
SWISSCUBE 02 Sep 00:47:15 00:49:20 13° 69° (ENE) 00:51:42 437.505
AUBIESAT-1 02 Sep 00:53:53 00:54:31 10° 296° (WNW) 00:54:54 437.475
Cosmos 2504 02 Sep 01:00:47 01:07:05 23° 289° (WNW) 01:13:17 435.465 / 435.565
POLYITAN 1 02 Sep 01:03:56 01:06:40 16° 289° (WNW) 01:09:13 437.675
DUCHIFAT 1 02 Sep 01:05:22 01:08:08 16° 289° (WNW) 01:10:44 145.980
VERMONT LUNAR 02 Sep 01:05:35 01:07:10 14° 141° (SE) 01:08:49 437.305
POPSAT HIP 1 02 Sep 01:06:07 01:08:46 16° 289° (WNW) 01:11:14 437.405
BUGSAT 1 02 Sep 01:07:00 01:10:32 25° 287° (WNW) 01:13:59 437.445
SPROUT 02 Sep 01:11:06 01:14:41 25° 264° (W) 01:18:12 437.525
Oscar 19 02 Sep 01:13:51 01:17:10 18° 93° (E) 01:20:41 437.125/150
CUSAT 1 02 Sep 01:14:36 01:16:43 13° 295° (WNW) 01:18:51 437.405
ITUPSAT 1 02 Sep 01:24:09 01:28:18 31° 73° (ENE) 01:32:31 437.325
BEESAT 3 02 Sep 01:24:51 01:27:10 15° 250° (WSW) 01:29:20 437.485
BEESAT 2 02 Sep 01:38:50 01:41:05 14° 250° (WSW) 01:43:06 435.950
SO-50 02 Sep 01:39:04 01:42:55 23° 307° (NW) 01:46:46 436.795
PCSat 02 Sep 01:45:14 01:50:36 65° 297° (WNW) 01:55:59 145.827
RS-15 02 Sep 01:50:19 02:02:22 85° 63° (ENE) 02:14:44 29.354- 29.394
BEESAT 02 Sep 01:55:53 02:00:38 75° 76° (ENE) 02:05:25 436.000
Gurwin Techsat 1B 02 Sep 02:04:42 02:07:52 17° 93° (E) 02:11:18 435.225
GONETS M04 02 Sep 02:12:48 02:20:41 43° 90° (E) 02:28:46
ITAMSAT 1 02 Sep 02:15:31 02:18:37 17° 93° (E) 02:21:59 435.822/435.867
SWISSCUBE 02 Sep 02:22:13 02:26:50 49° 260° (W) 02:31:26 437.505
AIST 2 02 Sep 02:22:18 02:25:51 27° 248° (WSW) 02:29:17 435.215
STARS 02 Sep 02:28:05 02:29:37 12° 69° (ENE) 02:31:26 437.465
VERMONT LUNAR 02 Sep 02:40:23 02:43:21 60° 331° (NNW) 02:46:19 437.305
KKS-1 02 Sep 02:47:12 02:51:17 37° 74° (ENE) 02:55:25 437.445
Oscar 19 02 Sep 02:51:50 02:56:43 41° 287° (WNW) 03:01:31 437.125/150
ITUPSAT 1 02 Sep 03:02:41 03:06:14 20° 265° (W) 03:09:37 437.325
AO-7 02 Sep 03:19:11 03:23:39 16° 92° (E) 03:28:45 29.400- 29.500
Gurwin Techsat 1B 02 Sep 03:43:03 03:48:06 45° 286° (WNW) 03:53:07 435.225
JAS-2 02 Sep 03:46:29 03:53:14 79° 102° (ESE) 03:59:07 435.910
PHONESAT 2.4 02 Sep 03:47:34 03:50:33 28° 144° (SE) 03:53:33 2401.200-2431.200
ITAMSAT 1 02 Sep 03:53:27 03:58:21 43° 287° (WNW) 04:03:14 435.822/435.867
HORYU 2 02 Sep 03:56:26 03:59:33 19° 95° (E) 04:02:49 437.375
STARS 02 Sep 04:01:28 04:05:42 46° 261° (W) 04:09:57 437.465
Cosmos 2499 02 Sep 04:04:38 04:12:46 62° 92° (E) 04:21:25 435.465 / 435.565
RS-15 02 Sep 04:05:36 04:13:57 20° 256° (WSW) 04:21:28 29.354- 29.394
GONETS M04 02 Sep 04:10:00 04:17:40 33° 285° (WNW) 04:25:09
VERMONT LUNAR 02 Sep 04:18:16 04:20:10 15° 348° (NNW) 04:22:02 437.305
KKS-1 02 Sep 04:25:36 04:28:05 14° 267° (W) 04:30:20 437.445
MOZHAYETS 4 02 Sep 04:45:08 04:49:45 74° 259° (W) 04:54:22
O/OREOS (USA 219) 02 Sep 05:04:43 05:09:18 68° 70° (ENE) 05:13:50 437.305
CUBESAT XI-V 02 Sep 05:08:29 05:10:26 13° 70° (ENE) 05:12:38 437.345
AO-7 02 Sep 05:09:01 05:17:20 79° 287° (WNW) 05:25:35 29.400- 29.500
PHONESAT 2.4 02 Sep 05:25:08 05:28:22 39° 336° (NNW) 05:31:35 2401.200-2431.200
HORYU 2 02 Sep 05:32:24 05:36:12 27° 287° (WNW) 05:39:54 437.375
JAS-2 02 Sep 05:34:18 05:37:23 13° 298° (WNW) 05:39:54 435.910
Cubesat XI-IV 02 Sep 05:47:03 05:47:08 10° 90° (E) 05:47:40 437.490
VERMONT LUNAR 02 Sep 05:56:05 05:57:21 12° 5° (N) 05:58:39 437.305
Cosmos 2499 02 Sep 06:00:02 06:06:36 23° 290° (WNW) 06:13:02 435.465 / 435.565
CUTE-I 02 Sep 06:27:34 06:32:12 31° 97° (E) 06:36:56 437.470
PRISM 02 Sep 06:33:25 06:36:00 17° 71° (ENE) 06:38:45 437.425
CUBESAT XI-V 02 Sep 06:43:07 06:47:31 45° 261° (W) 06:51:56 437.345
AIST 1 02 Sep 06:57:23 06:58:09 11° 88° (E) 06:59:13
PHONESAT 2.4 02 Sep 07:04:38 07:06:49 16° 353° (N) 07:08:59 2401.200-2431.200
AO-7 02 Sep 07:05:22 07:09:04 13° 302° (WNW) 07:12:09 29.400- 29.500
STRAND 1 02 Sep 07:07:02 07:12:06 73° 76° (ENE) 07:17:12 437.568
ISS 02 Sep 07:08:58 07:11:53 31° 130° (SE) 07:14:49 145.825
Cubesat XI-IV 02 Sep 07:22:29 07:27:47 70° 285° (WNW) 07:33:05 437.490
VERMONT LUNAR 02 Sep 07:31:48 07:34:23 26° 21° (NNE) 07:36:59 437.305
YUBILEINY 02 Sep 07:42:28 07:50:20 37° 76° (ENE) 07:58:19 435.215
PRISM 02 Sep 08:07:45 08:11:16 26° 263° (W) 08:14:42 437.425
CUTE-I 02 Sep 08:07:50 08:12:10 25° 289° (WNW) 08:16:21 437.470
BRITE-PL 02 Sep 08:17:57 08:23:36 78° 101° (E) 08:29:18 437.365/2234.400
Cosmos 2491 02 Sep 08:23:13 08:31:09 43° 90° (E) 08:39:13 435.465 / 435.565
AIST 1 02 Sep 08:31:27 08:35:27 40° 279° (W) 08:39:27
HO-68 02 Sep 08:38:57 08:45:21 35° 98° (E) 08:51:50 435.675
GOMX 1 02 Sep 08:39:20 08:44:50 75° 100° (E) 08:50:17 467.674
PHONESAT 2.4 02 Sep 08:43:12 08:45:31 17° 10° (N) 08:47:52 2401.200-2431.200
DOVE 4 02 Sep 08:45:41 08:50:50 50° 98° (E) 08:55:52 437.250
ISS 02 Sep 08:46:04 08:48:21 17° 324° (NW) 08:50:36 145.825
CUTE 1.7 + AOD 2 02 Sep 08:55:52 08:59:48 38° 98° (E) 09:03:44 437.475
CUBEBUG 2 02 Sep 09:03:29 09:03:58 10° 89° (E) 09:04:50 437.445
Cosmos 2504 02 Sep 09:04:09 09:06:44 12° 64° (ENE) 09:10:01 435.465 / 435.565
VERMONT LUNAR 02 Sep 09:08:04 09:10:50 36° 214° (SW) 09:13:36 437.305
CANX-2 02 Sep 09:09:55 09:14:07 69° 101° (E) 09:18:17 2200.000
CINEMA 3 02 Sep 09:20:04 09:24:50 47° 98° (E) 09:29:26 145.822/145.860
UNISAT 6 02 Sep 09:26:59 09:27:49 11° 68° (ENE) 09:28:58 437.425
SEEDS 02 Sep 09:28:32 09:32:44 82° 101° (ESE) 09:36:53 437.485
YUBILEINY 02 Sep 09:39:09 09:47:09 39° 271° (W) 09:54:57 435.215
Oscar 11 02 Sep 09:43:12 09:46:54 28° 96° (E) 09:50:39 145.826/435.025
COMPASS 1 02 Sep 09:47:48 09:51:57 75° 283° (WNW) 09:56:03 437.405
TIGRISAT 02 Sep 09:52:09 09:55:33 21° 71° (ENE) 09:59:07 435.000
AAUSAT CUBESAT 2 02 Sep 09:56:36 10:00:42 69° 283° (WNW) 10:04:47 437.432
AUBIESAT-1 02 Sep 09:57:55 10:01:43 25° 68° (ENE) 10:05:34 437.475
BRITE-PL 02 Sep 09:59:32 10:01:33 12° 292° (WNW) 10:03:12 437.365/2234.400
M-CUBED/EXP-1 PRIME 02 Sep 10:04:16 10:08:35 35° 69° (ENE) 10:12:55 437.505
ANTELSAT 02 Sep 10:09:05 10:13:16 34° 74° (ENE) 10:17:32 437.575/2403.000
DELFI C3 02 Sep 10:09:28 10:13:09 36° 98° (E) 10:16:50 145.870
CUSAT 1 02 Sep 10:10:41 10:17:30 31° 73° (ENE) 10:24:32 437.405
SO-50 02 Sep 10:14:56 10:19:50 73° 62° (ENE) 10:24:35 436.795
JUGNU 02 Sep 10:15:59 10:17:44 11° 162° (SSE) 10:19:38 437.505
POLYITAN 1 02 Sep 10:16:34 10:18:09 12° 70° (ENE) 10:19:58 437.675
DUCHIFAT 1 02 Sep 10:17:48 10:19:02 11° 70° (ENE) 10:20:33 145.980
POPSAT HIP 1 02 Sep 10:18:26 10:20:05 12° 70° (ENE) 10:21:58 437.405
GOMX 1 02 Sep 10:20:25 10:22:23 12° 292° (WNW) 10:23:58 467.674
Cosmos 2491 02 Sep 10:20:26 10:28:08 33° 285° (WNW) 10:35:38 435.465 / 435.565
PHONESAT 2.4 02 Sep 10:20:34 10:23:53 51° 25° (NNE) 10:27:12 2401.200-2431.200
DOVE 4 02 Sep 10:24:54 10:28:09 16° 291° (WNW) 10:31:08 437.250
HO-68 02 Sep 10:26:35 10:33:02 35° 292° (WNW) 10:39:20 435.675
ZACube-1 02 Sep 10:29:26 10:33:52 69° 101° (E) 10:38:10 437.345
CUTE 1.7 + AOD 2 02 Sep 10:33:27 10:35:24 13° 290° (WNW) 10:37:07 437.475
FUNcube-1 02 Sep 10:34:03 10:38:30 76° 101° (E) 10:42:48 145.935
NANOSAT C BR1 02 Sep 10:34:07 10:37:05 19° 72° (ENE) 10:40:12 145.865
QB50P2 02 Sep 10:34:16 10:37:23 21° 72° (ENE) 10:40:38 145.880/145.840
CUBEBUG 2 02 Sep 10:36:33 10:41:05 52° 285° (WNW) 10:45:25 437.445
PCSat 02 Sep 10:39:18 10:43:59 30° 58° (ENE) 10:48:44 145.827
UWE-3 02 Sep 10:40:02 10:44:32 63° 284° (WNW) 10:48:52 435.000/436.395/437.385
QB50P1 02 Sep 10:47:46 10:51:25 29° 73° (ENE) 10:55:08 145.935-145.965
DANDE 02 Sep 10:49:39 10:57:08 43° 77° (ENE) 11:05:09 436.750
Cosmos 2504 02 Sep 10:52:05 11:00:30 85° 85° (E) 11:08:18 435.465 / 435.565
CINEMA 3 02 Sep 10:58:49 11:01:36 15° 291° (WNW) 11:04:06 145.822/145.860
UNISAT 6 02 Sep 10:59:31 11:04:08 60° 260° (W) 11:08:47 437.425
HUMSAT D 02 Sep 11:00:52 11:05:01 57° 100° (E) 11:09:06 437.325/437.525
DX 1 02 Sep 11:13:43 11:17:52 41° 99° (E) 11:22:01 434.975-435.025
Oscar 11 02 Sep 11:19:57 11:22:54 18° 289° (WNW) 11:25:41 145.826/435.025
UKube-1 02 Sep 11:23:37 11:27:48 48° 100° (E) 11:32:00 .
TIGRISAT 02 Sep 11:28:02 11:32:07 29° 264° (W) 11:36:11 435.000
AUBIESAT-1 02 Sep 11:32:12 11:36:16 27° 260° (W) 11:40:13 437.475
ESTCUBE 1 02 Sep 11:35:41 11:39:44 33° 98° (E) 11:43:50 437.505/2401.250
CUBEBUG 1 02 Sep 11:38:11 11:41:59 28° 97° (E) 11:45:51 437.445
M-CUBED/EXP-1 PRIME 02 Sep 11:39:50 11:43:22 20° 262° (W) 11:46:45 437.505
AISAT 02 Sep 11:42:25 11:46:51 59° 100° (E) 11:51:16 437.250
DELFI C3 02 Sep 11:46:20 11:47:54 12° 289° (WNW) 11:49:16 145.870
ANTELSAT 02 Sep 11:46:54 11:50:07 18° 267° (W) 11:53:11 437.575/2403.000
POLYITAN 1 02 Sep 11:49:39 11:53:42 42° 261° (W) 11:57:46 437.675
DUCHIFAT 1 02 Sep 11:50:27 11:54:29 44° 261° (W) 11:58:33 145.980
BUGSAT 1 02 Sep 11:50:28 11:54:29 77° 258° (WSW) 11:58:36 437.445
POPSAT HIP 1 02 Sep 11:51:35 11:55:36 41° 261° (W) 11:59:38 437.405
CUSAT 1 02 Sep 11:52:28 12:00:17 51° 267° (W) 12:07:55 437.405
PHONESAT 2.4 02 Sep 11:58:59 12:01:35 20° 218° (SW) 12:04:09 2401.200-2431.200
JUGNU 02 Sep 12:01:42 12:06:14 23° 169° (S) 12:10:48 437.505
NANOSAT C BR1 02 Sep 12:09:13 12:12:46 25° 264° (W) 12:16:15 145.865
QB50P2 02 Sep 12:09:41 12:13:10 24° 264° (W) 12:16:35 145.880/145.840
VELOX 1 02 Sep 12:10:07 12:14:34 66° 284° (WNW) 12:18:59 145.980
50 SAT 02 Sep 12:10:57 12:14:36 41° 285° (WNW) 12:18:11 437.505
PCSat 02 Sep 12:22:44 12:27:20 28° 252° (WSW) 12:31:48 145.827
QB50P1 02 Sep 12:24:32 12:27:19 17° 266° (W) 12:29:58 145.935-145.965
TISAT 1 02 Sep 12:25:30 12:27:45 14° 93° (E) 12:30:12 437.305
Oscar 19 02 Sep 12:25:59 12:28:41 15° 68° (ENE) 12:31:39 437.125/150
GONETS M04 02 Sep 12:32:23 12:36:28 15° 66° (ENE) 12:41:18
DANDE 02 Sep 12:32:51 12:40:12 37° 269° (W) 12:47:41 436.750
Cosmos 2504 02 Sep 12:47:50 12:51:41 13° 278° (W) 12:54:47 435.465 / 435.565
DX 1 02 Sep 12:51:35 12:53:47 13° 291° (WNW) 12:55:46 434.975-435.025
UKube-1 02 Sep 13:02:09 13:03:33 11° 291° (WNW) 13:04:41 .
SPROUT 02 Sep 13:02:26 13:06:48 87° 100° (E) 13:11:07 437.525
ESTCUBE 1 02 Sep 13:13:25 13:16:22 17° 289° (WNW) 13:19:09 437.505/2401.250
CUBEBUG 1 02 Sep 13:14:58 13:18:09 19° 289° (WNW) 13:21:12 437.445
SRMSAT 02 Sep 13:15:19 13:19:18 19° 166° (SSE) 13:23:20 437.500
Gurwin Techsat 1B 02 Sep 13:20:48 13:23:46 16° 68° (ENE) 13:26:59 435.225
ITAMSAT 1 02 Sep 13:28:45 13:31:25 15° 68° (ENE) 13:34:22 435.822/435.867
ITUPSAT 1 02 Sep 13:32:08 13:34:02 13° 92° (E) 13:36:14 437.325
BEESAT 3 02 Sep 13:33:08 13:36:17 23° 111° (ESE) 13:39:33 437.485
BEESAT 2 02 Sep 13:47:45 13:51:02 25° 112° (ESE) 13:54:27 435.950
JUGNU 02 Sep 13:49:42 13:54:47 30° 179° (S) 13:59:51 437.505
JAS-2 02 Sep 13:51:36 13:57:07 23° 66° (ENE) 14:03:03 435.910
RS-15 02 Sep 13:59:38 14:05:42 18° 104° (ESE) 14:12:43 29.354- 29.394
TISAT 1 02 Sep 13:59:45 14:03:37 33° 286° (WNW) 14:07:26 437.305
BEESAT 02 Sep 14:02:17 14:06:26 30° 97° (E) 14:10:37 436.000
Oscar 19 02 Sep 14:02:39 14:07:39 51° 260° (W) 14:12:41 437.125/150
Cosmos 2499 02 Sep 14:06:22 14:10:20 15° 65° (ENE) 14:14:49 435.465 / 435.565
AO-7 02 Sep 14:13:35 14:17:34 15° 59° (ENE) 14:22:06 29.400- 29.500
GONETS M04 02 Sep 14:25:45 14:34:37 87° 265° (W) 14:43:28
SWISSCUBE 02 Sep 14:28:03 14:32:47 68° 102° (ESE) 14:37:30 437.505
AIST 2 02 Sep 14:37:19 14:39:48 16° 110° (ESE) 14:42:29 435.215
